THOR 6

Last updated on Wed Oct 29 2025 00:02:47 GMT+0000 (Coordinated Universal Time)

1 36033U 09058B 25301.16433729 -.00000007 00000+0 00000+0 0 9999 2 36033 0.0121 223.9695 0000798 125.5123 105.5970 1.00226088 58670
UTC large
Height (km)
Speed (km/s)
/
Latitude / Longitude
Inclination (degrees)
Orbital Period (minutes)
Azimuth
Elevation
Range (km)
Doppler Factor

Next 0 passes for location: London (51.5072 / 0.1276)

Sorry there are no passes over London.